Location: ???????????
(54.5822°N, 39.1075°E)
Time: 15:09:40
(UTC+00:00)

Cosmos 1733 - Pass Details

Date: 19 May 2025
Orbit: 374 x 381 km, 82.5° (Epoch: 20 June)

Event Time Altitude Azimuth Distance (km) Brightness Sun altitude
Rises 18:59:13 0° 342° (NNW) 2,315 8.3 -9.6°
Reaches altitude 10° 19:01:20 10° 333° (NNW) 1,451 7.1 -9.8°
Maximum altitude 19:04:14 34° 266° (W) 674 4.1 -10.0°
Drops below altitude 10° 19:07:05 10° 199° (SSW) 1,433 5.1 -10.2°
Enters shadow 19:07:35 - 196° (SSW) 1,630 5.3 -10.3°
